Weather History for De Queen, AR

Change the Weather History Date:

Tuesday, July 24, 2012

  Actual Average Record
Temperature  
Mean Temperature 84 °F 81 °F  
Max Temperature 97 °F 93 °F 108 °F (1954)
Min Temperature 70 °F 70 °F 59 °F (1947)
Degree Days  
Heating Degree Days 0 0  
Month to date heating degree days 0 0  
Since 1 June heating degree days 0 0  
Since 1 July heating degree days 0 0  
Cooling Degree Days 19 16  
Month to date cooling degree days 427 383  
Year to date cooling degree days 1240 978  
Since 1 June cooling degree days 867 761  
Growing Degree Days 34 (Base 50)    
Moisture  
Dew Point 70 °F    
Average Humidity 66    
Maximum Humidity 93    
Minimum Humidity 38    
Precipitation  
Precipitation 0.00 in 0.10 in 1.95 in (1971)
Month to date precipitation 1.31 3.09  
Year to date precipitation 17.08 28.73  
Snow  
Snow 0.00 in - - ()
Month to date snowfall 0.0  
Since 1 June snowfall 0.0  
Since 1 July snowfall 0.0  
Snow Depth 0.00 in    
Sea Level Pressure  
Sea Level Pressure 30.04 in    
Wind  
Wind Speed 4 mph (SW)    
Max Wind Speed 13 mph    
Max Gust Speed 18 mph    
Visibility 6 miles    
Events Fog    
T = Trace of Precipitation, MM = Missing Value Source: NWS Daily Summary

Daily Weather History Graph

Daily Weather History Graph

Search for Another Location

Airport:

Trip Planner

Search our weather history database for the weather conditions in past years. The results will help you decide how hot, cold, wet, or windy it might be!

Date:

Astronomy

Jul. 24, 2012 Rise Set
Actual Time 6:23 AM CDT 8:24 PM CDT
Civil Twilight 5:55 AM CDT 8:52 PM CDT
Nautical Twilight 5:21 AM CDT 9:25 PM CDT
Astronomical Twilight 4:45 AM CDT 10:02 PM CDT
Moon 12:01 PM CDT (7/24) 11:34 PM CDT (7/24)
Length of Visible Light 14h 56m
Length of Day
14h 00m
Waxing Crescent, 32% of the Moon is Illuminated
Jul 24
Waxing Crescent
Jul 26
First Quarter
Aug 1
Full
Aug 9
Last Quarter
Aug 17
New

Hourly Weather History & Observations

Time (CDT) Temp. Heat Index Dew Point Humidity Pressure Visibility Wind Dir Wind Speed Gust Speed Precip Events Conditions
12:53 AM 75.9 °F - 72.0 °F 87% 30.06 in 7.0 mi Calm Calm - N/A   Clear
1:53 AM 75.0 °F - 72.0 °F 90% 30.05 in 6.0 mi Calm Calm - N/A   Clear
2:53 AM 73.9 °F - 71.1 °F 91% 30.04 in 5.0 mi Calm Calm - N/A   Clear
3:53 AM 73.0 °F - 71.1 °F 93% 30.04 in 4.0 mi Calm Calm - N/A   Clear
4:53 AM 72.0 °F - 70.0 °F 93% 30.05 in 3.0 mi Calm Calm - N/A   Clear
5:31 AM 71.6 °F - 69.8 °F 94% 30.08 in 2.5 mi Calm Calm - N/A   Clear
5:39 AM 71.6 °F - 69.8 °F 94% 30.08 in 3.0 mi Calm Calm - N/A   Clear
5:53 AM 71.1 °F - 70.0 °F 96% 30.06 in 3.0 mi Calm Calm - N/A   Clear
6:24 AM 71.6 °F - 69.8 °F 94% 30.08 in 1.0 mi Calm Calm - N/A   Clear
6:29 AM 71.6 °F - 69.8 °F 94% 30.08 in 0.2 mi Calm Calm - N/A Fog Fog
6:50 AM 71.6 °F - 69.8 °F 94% 30.08 in 1.0 mi Calm Calm - N/A   Clear
6:53 AM 71.1 °F - 70.0 °F 96% 30.07 in 1.5 mi Calm Calm - N/A   Clear
7:08 AM 71.6 °F - 69.8 °F 94% 30.09 in 2.0 mi Calm Calm - N/A   Clear
7:26 AM 73.4 °F - 71.6 °F 94% 30.09 in 3.0 mi Calm Calm - N/A   Clear
7:53 AM 77.0 °F - 72.0 °F 84% 30.07 in 5.0 mi Calm Calm - N/A   Haze
8:53 AM 82.0 °F 87.4 °F 73.0 °F 74% 30.08 in 8.0 mi SW 9.2 mph - N/A   Clear
9:53 AM 84.0 °F 89.0 °F 71.1 °F 65% 30.06 in 10.0 mi WSW 9.2 mph - N/A   Clear
10:53 AM 86.0 °F 91.5 °F 71.1 °F 61% 30.05 in 10.0 mi WSW 8.1 mph - N/A   Mostly Cloudy
11:53 AM 90.0 °F 95.4 °F 70.0 °F 52% 30.04 in 10.0 mi WSW 11.5 mph - N/A   Mostly Cloudy
12:53 PM 93.0 °F 97.9 °F 69.1 °F 45% 30.01 in 10.0 mi WSW 10.4 mph - N/A   Mostly Cloudy
1:53 PM 95.0 °F 100.7 °F 69.1 °F 43% 29.99 in 10.0 mi Variable 6.9 mph 17.3 mph N/A   Partly Cloudy
2:53 PM 97.0 °F 101.0 °F 66.9 °F 37% 29.97 in 10.0 mi WSW 9.2 mph - N/A   Scattered Clouds
3:53 PM 96.1 °F 99.9 °F 66.9 °F 38% 29.95 in 10.0 mi South 8.1 mph - N/A   Mostly Cloudy
4:53 PM 93.0 °F 95.9 °F 66.0 °F 41% 29.94 in 10.0 mi SSW 8.1 mph - N/A   Partly Cloudy
11:53 PM 75.9 °F - 70.0 °F 82% 29.94 in 9.0 mi Calm Calm - N/A   Clear